Time,TemperatureF,DewpointF,PressureIn,WindDirection,WindDirectionDegrees,WindSpeedMPH,WindSpeedGustMPH,Humidity,HourlyPrecipIn,Conditions,Clouds,dailyrainin,SolarRadiationWatts/m^2,SoftwareType,DateUTC
2013-08-29 00:01:00,84.9,62.4,29.94,South,175,6.0,11.0,47,0.00,,---,0.00,0.00,VWS V14.01,2013-08-29 05:01:00,
2013-08-29 00:06:00,84.8,62.3,29.94,SSE,152,8.0,8.0,47,0.00,,---,0.00,0.00,VWS V14.01,2013-08-29 05:06:00,
2013-08-29 04:36:00,76.0,61.1,29.95,South,184,2.0,2.0,60,0.00,,---,0.00,0.00,VWS V14.01,2013-08-29 09:36:00,
2013-08-29 04:41:00,75.9,61.0,29.95,SSW,193,3.0,5.0,60,0.00,,---,0.00,0.00,VWS V14.01,2013-08-29 09:41:00,
2013-08-29 04:46:00,75.9,61.0,29.94,SSE,167,4.0,5.0,60,0.00,,---,0.00,0.00,VWS V14.01,2013-08-29 09:46:00,
2013-08-29 04:51:00,76.0,61.1,29.94,South,170,3.0,5.0,60,0.00,,---,0.00,0.00,VWS V14.01,2013-08-29 09:51:00,
2013-08-29 04:56:00,76.0,61.1,29.94,SSE,166,4.0,6.0,60,0.00,,---,0.00,0.00,VWS V14.01,2013-08-29 09:56:00,
2013-08-29 05:01:00,76.0,60.7,29.94,South,184,4.0,6.0,59,0.00,,---,0.00,0.00,VWS V14.01,2013-08-29 10:01:00,
2013-08-29 05:06:00,76.0,60.7,29.94,South,182,2.0,4.0,59,0.00,,---,0.00,0.00,VWS V14.01,2013-08-29 10:06:00,
2013-08-29 05:11:00,75.9,61.0,29.95,South,178,2.0,4.0,60,0.00,,---,0.00,0.00,VWS V14.01,2013-08-29 10:11:00,
2013-08-29 05:16:00,75.9,61.0,29.95,South,186,2.0,4.0,60,0.00,,---,0.00,0.00,VWS V14.01,2013-08-29 10:16:00,
2013-08-29 05:21:00,75.8,60.9,29.95,South,179,3.0,4.0,60,0.00,,---,0.00,0.00,VWS V14.01,2013-08-29 10:21:00,
2013-08-29 05:26:00,75.7,60.8,29.95,South,173,2.0,4.0,60,0.00,,---,0.00,0.00,VWS V14.01,2013-08-29 10:26:00,
2013-08-29 05:31:00,75.7,60.8,29.95,SSW,198,1.0,4.0,60,0.00,,---,0.00,0.00,VWS V14.01,2013-08-29 10:31:00,
2013-08-29 05:36:00,75.6,60.8,29.95,SSW,192,2.0,3.0,60,0.00,,---,0.00,0.00,VWS V14.01,2013-08-29 10:36:00,
2013-08-29 05:41:00,75.5,60.7,29.95,South,191,2.0,3.0,60,0.00,,---,0.00,0.00,VWS V14.01,2013-08-29 10:41:00,
2013-08-29 05:46:00,75.4,60.6,29.96,South,175,2.0,3.0,60,0.00,,---,0.00,0.00,VWS V14.01,2013-08-29 10:46:00,
2013-08-29 05:51:00,75.3,60.9,29.95,SSE,164,3.0,3.0,61,0.00,,---,0.00,0.00,VWS V14.01,2013-08-29 10:51:00,
2013-08-29 05:56:00,75.3,60.9,29.96,South,184,3.0,4.0,61,0.00,,---,0.00,0.00,VWS V14.01,2013-08-29 10:56:00,
2013-08-29 06:01:00,75.2,60.8,29.95,South,174,3.0,4.0,61,0.00,,---,0.00,0.00,VWS V14.01,2013-08-29 11:01:00,
2013-08-29 06:06:00,75.1,60.8,29.95,South,181,3.0,3.0,61,0.00,,---,0.00,0.00,VWS V14.01,2013-08-29 11:06:00,
2013-08-29 06:11:00,75.0,61.1,29.95,South,174,2.0,3.0,62,0.00,,---,0.00,0.00,VWS V14.01,2013-08-29 11:11:00,
2013-08-29 06:16:00,74.9,61.0,29.96,South,173,2.0,3.0,62,0.00,,---,0.00,0.00,VWS V14.01,2013-08-29 11:16:00,
2013-08-29 06:21:00,74.7,60.8,29.96,South,186,2.0,4.0,62,0.00,,---,0.00,0.00,VWS V14.01,2013-08-29 11:21:00,
2013-08-29 06:26:00,74.5,60.6,29.96,South,169,2.0,4.0,62,0.00,,---,0.00,0.00,VWS V14.01,2013-08-29 11:26:00,
2013-08-29 06:31:00,74.4,61.0,29.96,South,178,2.0,4.0,63,0.00,,---,0.00,0.00,VWS V14.01,2013-08-29 11:31:00,
2013-08-29 06:36:00,74.1,60.7,29.96,South,190,2.0,4.0,63,0.00,,---,0.00,0.00,VWS V14.01,2013-08-29 11:36:00,
2013-08-29 06:41:00,73.9,60.5,29.96,South,189,2.0,4.0,63,0.00,,---,0.00,0.00,VWS V14.01,2013-08-29 11:41:00,
2013-08-29 06:46:00,73.7,60.8,29.97,South,190,1.0,4.0,64,0.00,,---,0.00,0.00,VWS V14.01,2013-08-29 11:46:00,
2013-08-29 06:51:00,73.5,60.6,29.97,South,189,2.0,4.0,64,0.00,,---,0.00,0.00,VWS V14.01,2013-08-29 11:51:00,
2013-08-29 06:56:00,73.3,60.8,29.97,South,171,2.0,4.0,65,0.00,,---,0.00,0.00,VWS V14.01,2013-08-29 11:56:00,
2013-08-29 07:01:00,73.1,60.7,29.97,South,171,2.0,4.0,65,0.00,,---,0.00,0.00,VWS V14.01,2013-08-29 12:01:00,
2013-08-29 07:06:00,72.9,60.5,29.97,South,171,2.0,3.0,65,0.00,,---,0.00,0.00,VWS V14.01,2013-08-29 12:06:00,
2013-08-29 07:11:00,72.7,60.7,29.97,South,171,2.0,4.0,66,0.00,,---,0.00,5.00,VWS V14.01,2013-08-29 12:11:00,
2013-08-29 07:16:00,72.4,60.4,29.97,South,171,3.0,4.0,66,0.00,,---,0.00,9.00,VWS V14.01,2013-08-29 12:16:00,
2013-08-29 07:21:00,72.2,60.2,29.97,SSW,196,2.0,4.0,66,0.00,,---,0.00,12.00,VWS V14.01,2013-08-29 12:21:00,
2013-08-29 07:26:00,72.1,60.5,29.97,SSW,196,2.0,4.0,67,0.00,,---,0.00,16.00,VWS V14.01,2013-08-29 12:26:00,
2013-08-29 07:31:00,72.0,60.5,29.97,SSW,196,1.0,4.0,67,0.00,,---,0.00,21.00,VWS V14.01,2013-08-29 12:31:00,
2013-08-29 07:36:00,71.9,60.4,29.98,SSW,196,2.0,3.0,67,0.00,,---,0.00,30.00,VWS V14.01,2013-08-29 12:36:00,
2013-08-29 07:41:00,71.8,60.7,29.98,South,177,3.0,4.0,68,0.00,,---,0.00,39.00,VWS V14.01,2013-08-29 12:41:00,
2013-08-29 07:46:00,71.8,60.7,29.97,South,171,3.0,4.0,68,0.00,,---,0.00,51.00,VWS V14.01,2013-08-29 12:46:00,
2013-08-29 07:51:00,71.9,60.8,29.98,South,173,2.0,4.0,68,0.00,,---,0.00,65.00,VWS V14.01,2013-08-29 12:51:00,
2013-08-29 07:56:00,72.0,60.9,29.98,South,186,1.0,4.0,68,0.00,,---,0.00,77.00,VWS V14.01,2013-08-29 12:56:00,
2013-08-29 08:01:00,72.3,61.2,29.98,South,169,4.0,4.0,68,0.00,,---,0.00,90.00,VWS V14.01,2013-08-29 13:01:00,
2013-08-29 08:06:00,72.7,61.1,29.98,South,178,2.0,5.0,67,0.00,,---,0.00,111.00,VWS V14.01,2013-08-29 13:06:00,
2013-08-29 08:11:00,73.3,61.7,29.98,South,187,3.0,5.0,67,0.00,,---,0.00,130.00,VWS V14.01,2013-08-29 13:11:00,
2013-08-29 08:16:00,73.8,61.7,29.98,South,171,3.0,5.0,66,0.00,,---,0.00,149.00,VWS V14.01,2013-08-29 13:16:00,
2013-08-29 08:21:00,74.4,61.9,29.99,SSW,197,2.0,5.0,65,0.00,,---,0.00,169.00,VWS V14.01,2013-08-29 13:21:00,
2013-08-29 08:26:00,74.9,61.9,29.99,SSW,201,3.0,5.0,64,0.00,,---,0.00,186.00,VWS V14.01,2013-08-29 13:26:00,
2013-08-29 08:31:00,75.3,61.8,29.99,SSW,209,2.0,5.0,63,0.00,,---,0.00,206.00,VWS V14.01,2013-08-29 13:31:00,
2013-08-29 08:36:00,75.6,61.7,29.99,SSW,209,2.0,5.0,62,0.00,,---,0.00,223.00,VWS V14.01,2013-08-29 13:36:00,
2013-08-29 08:41:00,76.1,61.7,29.99,SSW,209,3.0,5.0,61,0.00,,---,0.00,241.00,VWS V14.01,2013-08-29 13:41:00,
2013-08-29 08:46:00,76.6,61.7,29.99,SW,216,1.0,5.0,60,0.00,,---,0.00,260.00,VWS V14.01,2013-08-29 13:46:00,
2013-08-29 08:51:00,77.1,62.2,29.99,SW,234,4.0,5.0,60,0.00,,---,0.00,278.00,VWS V14.01,2013-08-29 13:51:00,
2013-08-29 08:56:00,77.8,61.9,29.99,WSW,242,4.0,6.0,58,0.00,,---,0.00,295.00,VWS V14.01,2013-08-29 13:56:00,
2013-08-29 09:01:00,78.3,61.8,29.99,WSW,239,4.0,6.0,57,0.00,,---,0.00,315.00,VWS V14.01,2013-08-29 14:01:00,
2013-08-29 09:06:00,79.0,61.5,29.99,WSW,237,5.0,8.0,55,0.00,,---,0.00,330.00,VWS V14.01,2013-08-29 14:06:00,
2013-08-29 09:11:00,79.6,62.0,29.99,SW,223,5.0,8.0,55,0.00,,---,0.00,348.00,VWS V14.01,2013-08-29 14:11:00,
2013-08-29 09:16:00,80.4,62.2,29.99,WSW,244,5.0,8.0,54,0.00,,---,0.00,364.00,VWS V14.01,2013-08-29 14:16:00,
2013-08-29 09:21:00,81.3,62.0,30.00,SW,224,5.0,8.0,52,0.00,,---,0.00,381.00,VWS V14.01,2013-08-29 14:21:00,
2013-08-29 09:26:00,81.9,62.0,30.00,SW,233,5.0,9.0,51,0.00,,---,0.00,401.00,VWS V14.01,2013-08-29 14:26:00,
2013-08-29 09:31:00,82.7,61.0,30.00,WSW,254,7.0,9.0,48,0.00,,---,0.00,418.00,VWS V14.01,2013-08-29 14:31:00,
2013-08-29 09:36:00,83.4,61.1,30.00,SSW,213,2.0,8.0,47,0.00,,---,0.00,436.00,VWS V14.01,2013-08-29 14:36:00,
2013-08-29 09:41:00,84.1,61.1,29.99,SW,217,6.0,10.0,46,0.00,,---,0.00,450.00,VWS V14.01,2013-08-29 14:41:00,
2013-08-29 09:46:00,84.9,61.2,29.99,West,279,7.0,10.0,45,0.00,,---,0.00,466.00,VWS V14.01,2013-08-29 14:46:00,
2013-08-29 09:51:00,85.5,61.1,29.99,SSW,211,6.0,10.0,44,0.00,,---,0.00,482.00,VWS V14.01,2013-08-29 14:51:00,
2013-08-29 09:56:00,86.1,61.0,29.99,West,261,8.0,10.0,43,0.00,,---,0.00,499.00,VWS V14.01,2013-08-29 14:56:00,
2013-08-29 10:01:00,86.8,61.0,29.99,West,265,6.0,12.0,42,0.00,,---,0.00,517.00,VWS V14.01,2013-08-29 15:01:00,
2013-08-29 10:06:00,87.2,60.7,29.99,SW,215,7.0,12.0,41,0.00,,---,0.00,533.00,VWS V14.01,2013-08-29 15:06:00,
2013-08-29 10:11:00,87.5,60.9,29.99,WSW,239,6.0,12.0,41,0.00,,---,0.00,545.00,VWS V14.01,2013-08-29 15:11:00,
2013-08-29 10:16:00,87.9,60.6,29.99,WSW,237,6.0,12.0,40,0.00,,---,0.00,561.00,VWS V14.01,2013-08-29 15:16:00,
2013-08-29 10:21:00,88.5,60.4,29.99,SW,215,7.0,12.0,39,0.00,,---,0.00,577.00,VWS V14.01,2013-08-29 15:21:00,
2013-08-29 10:26:00,89.1,60.9,29.99,SW,231,6.0,12.0,39,0.00,,---,0.00,594.00,VWS V14.01,2013-08-29 15:26:00,
2013-08-29 10:31:00,89.7,60.0,29.99,WSW,244,6.0,12.0,37,0.00,,---,0.00,608.00,VWS V14.01,2013-08-29 15:31:00,
2013-08-29 10:36:00,90.0,60.3,29.99,SW,216,8.0,11.0,37,0.00,,---,0.00,622.00,VWS V14.01,2013-08-29 15:36:00,
2013-08-29 10:41:00,90.3,59.8,29.99,SW,227,8.0,12.0,36,0.00,,---,0.00,636.00,VWS V14.01,2013-08-29 15:41:00,
2013-08-29 10:46:00,90.6,59.2,29.99,SW,236,9.0,15.0,35,0.00,,---,0.00,650.00,VWS V14.01,2013-08-29 15:46:00,
2013-08-29 10:51:00,90.9,59.5,29.99,WSW,241,7.0,15.0,35,0.00,,---,0.00,664.00,VWS V14.01,2013-08-29 15:51:00,
2013-08-29 10:56:00,91.0,59.6,29.99,WSW,257,8.0,16.0,35,0.00,,---,0.00,675.00,VWS V14.01,2013-08-29 15:56:00,
2013-08-29 11:01:00,91.1,59.7,29.99,WNW,302,8.0,16.0,35,0.00,,---,0.00,689.00,VWS V14.01,2013-08-29 16:01:00,
2013-08-29 11:06:00,91.3,60.6,29.99,SW,223,6.0,12.0,36,0.00,,---,0.00,705.00,VWS V14.01,2013-08-29 16:06:00,
2013-08-29 11:11:00,91.8,60.3,29.99,SW,214,11.0,14.0,35,0.00,,---,0.00,715.00,VWS V14.01,2013-08-29 16:11:00,
2013-08-29 11:16:00,92.5,60.9,29.99,SW,227,11.0,14.0,35,0.00,,---,0.00,726.00,VWS V14.01,2013-08-29 16:16:00,
2013-08-29 11:21:00,92.8,60.3,29.99,WSW,247,12.0,14.0,34,0.00,,---,0.00,742.00,VWS V14.01,2013-08-29 16:21:00,
2013-08-29 11:26:00,93.3,60.8,29.99,SSW,207,9.0,14.0,34,0.00,,---,0.00,751.00,VWS V14.01,2013-08-29 16:26:00,
2013-08-29 11:31:00,93.5,61.0,29.98,WSW,258,12.0,18.0,34,0.00,,---,0.00,759.00,VWS V14.01,2013-08-29 16:31:00,
2013-08-29 11:36:00,93.2,60.7,29.99,SSW,205,11.0,14.0,34,0.00,,---,0.00,773.00,VWS V14.01,2013-08-29 16:36:00,
2013-08-29 11:41:00,93.2,60.7,29.98,West,267,10.0,14.0,34,0.00,,---,0.00,782.00,VWS V14.01,2013-08-29 16:41:00,
2013-08-29 11:46:00,93.4,60.0,29.98,WSW,257,5.0,14.0,33,0.00,,---,0.00,788.00,VWS V14.01,2013-08-29 16:46:00,
2013-08-29 11:51:00,93.6,61.0,29.98,SW,224,10.0,20.0,34,0.00,,---,0.00,803.00,VWS V14.01,2013-08-29 16:51:00,
2013-08-29 11:56:00,94.0,61.4,29.98,West,270,3.0,20.0,34,0.00,,---,0.00,809.00,VWS V14.01,2013-08-29 16:56:00,
2013-08-29 12:01:00,94.5,61.0,29.98,SW,230,10.0,20.0,33,0.00,,---,0.00,821.00,VWS V14.01,2013-08-29 17:01:00,
2013-08-29 12:06:00,94.7,60.3,29.98,West,261,6.0,13.0,32,0.00,,---,0.00,823.00,VWS V14.01,2013-08-29 17:06:00,
2013-08-29 12:11:00,94.6,61.1,29.98,SW,224,6.0,13.0,33,0.00,,---,0.00,835.00,VWS V14.01,2013-08-29 17:11:00,
2013-08-29 12:16:00,95.3,60.8,29.98,SSW,196,4.0,13.0,32,0.00,,---,0.00,844.00,VWS V14.01,2013-08-29 17:16:00,
2013-08-29 12:21:00,96.4,60.9,29.98,SW,232,9.0,18.0,31,0.00,,---,0.00,856.00,VWS V14.01,2013-08-29 17:21:00,
2013-08-29 12:26:00,96.4,60.9,29.97,South,180,8.0,18.0,31,0.00,,---,0.00,856.00,VWS V14.01,2013-08-29 17:26:00,
2013-08-29 12:31:00,96.5,60.0,29.97,South,180,6.0,18.0,30,0.00,,---,0.00,867.00,VWS V14.01,2013-08-29 17:31:00,
2013-08-29 12:36:00,96.8,60.3,29.97,WSW,240,8.0,15.0,30,0.00,,---,0.00,879.00,VWS V14.01,2013-08-29 17:36:00,
2013-08-29 12:41:00,96.5,61.0,29.97,SW,221,12.0,15.0,31,0.00,,---,0.00,884.00,VWS V14.01,2013-08-29 17:41:00,
2013-08-29 12:46:00,97.1,60.5,29.97,South,174,11.0,15.0,30,0.00,,---,0.00,891.00,VWS V14.01,2013-08-29 17:46:00,
2013-08-29 12:51:00,97.1,60.5,29.97,SSW,205,1.0,15.0,30,0.00,,---,0.00,895.00,VWS V14.01,2013-08-29 17:51:00,
2013-08-29 12:56:00,97.3,60.7,29.97,SE,136,6.0,15.0,30,0.00,,---,0.00,900.00,VWS V14.01,2013-08-29 17:56:00,
2013-08-29 13:01:00,97.5,60.9,29.97,SW,227,10.0,15.0,30,0.00,,---,0.00,909.00,VWS V14.01,2013-08-29 18:01:00,
2013-08-29 13:06:00,97.3,60.7,29.96,South,191,5.0,13.0,30,0.00,,---,0.00,912.00,VWS V14.01,2013-08-29 18:06:00,
2013-08-29 13:11:00,97.3,60.7,29.96,SSW,202,11.0,17.0,30,0.00,,---,0.00,923.00,VWS V14.01,2013-08-29 18:11:00,
2013-08-29 13:16:00,97.0,60.5,29.96,South,178,8.0,21.0,30,0.00,,---,0.00,930.00,VWS V14.01,2013-08-29 18:16:00,
2013-08-29 13:21:00,97.0,60.5,29.95,SSE,166,3.0,21.0,30,0.00,,---,0.00,919.00,VWS V14.01,2013-08-29 18:21:00,
2013-08-29 13:26:00,97.2,60.6,29.95,SSW,201,4.0,21.0,30,0.00,,---,0.00,932.00,VWS V14.01,2013-08-29 18:26:00,
2013-08-29 13:31:00,97.5,60.9,29.95,South,171,5.0,21.0,30,0.00,,---,0.00,854.00,VWS V14.01,2013-08-29 18:31:00,
2013-08-29 13:36:00,97.7,61.0,29.95,South,189,10.0,15.0,30,0.00,,---,0.00,765.00,VWS V14.01,2013-08-29 18:36:00,
2013-08-29 13:41:00,97.5,60.9,29.95,SSE,165,6.0,16.0,30,0.00,,---,0.00,828.00,VWS V14.01,2013-08-29 18:41:00,
2013-08-29 13:46:00,97.7,62.0,29.95,South,191,8.0,17.0,31,0.00,,---,0.00,911.00,VWS V14.01,2013-08-29 18:46:00,
2013-08-29 13:51:00,98.2,61.5,29.94,South,184,2.0,17.0,30,0.00,,---,0.00,816.00,VWS V14.01,2013-08-29 18:51:00,
2013-08-29 13:56:00,98.9,61.1,29.94,SW,225,10.0,17.0,29,0.00,,---,0.00,896.00,VWS V14.01,2013-08-29 18:56:00,
2013-08-29 14:01:00,98.8,61.0,29.94,SSE,166,11.0,18.0,29,0.00,,---,0.00,956.00,VWS V14.01,2013-08-29 19:01:00,
2013-08-29 14:06:00,98.9,62.1,29.94,South,169,8.0,11.0,30,0.00,,---,0.00,954.00,VWS V14.01,2013-08-29 19:06:00,
2013-08-29 14:11:00,99.2,61.4,29.93,WSW,237,16.0,17.0,29,0.00,,---,0.00,942.00,VWS V14.01,2013-08-29 19:11:00,
2013-08-29 14:16:00,99.1,60.3,29.93,WSW,237,11.0,17.0,28,0.00,,---,0.00,902.00,VWS V14.01,2013-08-29 19:16:00,
2013-08-29 14:21:00,99.3,60.5,29.93,SSE,148,4.0,17.0,28,0.00,,---,0.00,896.00,VWS V14.01,2013-08-29 19:21:00,
2013-08-29 14:26:00,99.6,60.7,29.93,South,172,4.0,17.0,28,0.00,,---,0.00,933.00,VWS V14.01,2013-08-29 19:26:00,
2013-08-29 14:31:00,99.7,60.8,29.93,SSE,164,9.0,17.0,28,0.00,,---,0.00,947.00,VWS V14.01,2013-08-29 19:31:00,
2013-08-29 14:36:00,99.3,60.5,29.92,WSW,241,5.0,15.0,28,0.00,,---,0.00,912.00,VWS V14.01,2013-08-29 19:36:00,
2013-08-29 14:41:00,99.5,60.7,29.92,SSW,209,4.0,17.0,28,0.00,,---,0.00,944.00,VWS V14.01,2013-08-29 19:41:00,
2013-08-29 14:46:00,99.7,58.7,29.92,SSE,161,7.0,17.0,26,0.00,,---,0.00,953.00,VWS V14.01,2013-08-29 19:46:00,
2013-08-29 14:51:00,99.8,57.7,29.92,South,187,7.0,17.0,25,0.00,,---,0.00,974.00,VWS V14.01,2013-08-29 19:51:00,
2013-08-29 14:56:00,99.6,58.7,29.91,West,259,7.0,17.0,26,0.00,,---,0.00,953.00,VWS V14.01,2013-08-29 19:56:00,
2013-08-29 15:01:00,99.6,59.7,29.91,SW,236,10.0,17.0,27,0.00,,---,0.00,867.00,VWS V14.01,2013-08-29 20:01:00,
2013-08-29 15:06:00,99.8,60.9,29.91,South,182,10.0,14.0,28,0.00,,---,0.00,875.00,VWS V14.01,2013-08-29 20:06:00,
2013-08-29 15:11:00,99.6,60.7,29.91,SSE,163,6.0,14.0,28,0.00,,---,0.00,856.00,VWS V14.01,2013-08-29 20:11:00,
2013-08-29 15:16:00,99.7,58.7,29.91,SSE,168,12.0,18.0,26,0.00,,---,0.00,858.00,VWS V14.01,2013-08-29 20:16:00,
2013-08-29 15:21:00,99.8,59.9,29.91,SSE,165,7.0,18.0,27,0.00,,---,0.00,849.00,VWS V14.01,2013-08-29 20:21:00,
2013-08-29 15:26:00,100.3,59.2,29.90,South,181,7.0,18.0,26,0.00,,---,0.00,766.00,VWS V14.01,2013-08-29 20:26:00,
2013-08-29 15:31:00,99.8,58.8,29.90,South,172,7.0,18.0,26,0.00,,---,0.00,635.00,VWS V14.01,2013-08-29 20:31:00,
2013-08-29 15:36:00,99.7,59.8,29.90,SSW,206,5.0,12.0,27,0.00,,---,0.00,696.00,VWS V14.01,2013-08-29 20:36:00,
2013-08-29 15:41:00,100.0,59.0,29.90,SW,227,9.0,12.0,26,0.00,,---,0.00,594.00,VWS V14.01,2013-08-29 20:41:00,
2013-08-29 15:46:00,99.5,58.6,29.89,WSW,250,7.0,17.0,26,0.00,,---,0.00,478.00,VWS V14.01,2013-08-29 20:46:00,
2013-08-29 15:51:00,99.2,59.4,29.90,SSE,165,7.0,17.0,27,0.00,,---,0.00,661.00,VWS V14.01,2013-08-29 20:51:00,
2013-08-29 15:56:00,99.4,58.5,29.89,SW,225,5.0,17.0,26,0.00,,---,0.00,631.00,VWS V14.01,2013-08-29 20:56:00,
2013-08-29 16:01:00,99.5,58.6,29.89,South,169,6.0,17.0,26,0.00,,---,0.00,719.00,VWS V14.01,2013-08-29 21:01:00,
2013-08-29 16:06:00,99.6,58.7,29.89,South,175,6.0,10.0,26,0.00,,---,0.00,793.00,VWS V14.01,2013-08-29 21:06:00,
2013-08-29 16:11:00,100.0,59.0,29.89,South,178,5.0,10.0,26,0.00,,---,0.00,478.00,VWS V14.01,2013-08-29 21:11:00,
2013-08-29 16:16:00,100.1,58.0,29.89,SSW,209,5.0,10.0,25,0.00,,---,0.00,582.00,VWS V14.01,2013-08-29 21:16:00,
2013-08-29 16:21:00,100.3,59.2,29.88,SSE,155,8.0,10.0,26,0.00,,---,0.00,780.00,VWS V14.01,2013-08-29 21:21:00,
2013-08-29 16:26:00,100.8,58.6,29.88,East,101,5.0,13.0,25,0.00,,---,0.00,759.00,VWS V14.01,2013-08-29 21:26:00,
2013-08-29 16:31:00,101.2,57.8,29.88,SSE,160,4.0,13.0,24,0.00,,---,0.00,773.00,VWS V14.01,2013-08-29 21:31:00,
2013-08-29 16:36:00,101.1,57.7,29.88,SSW,202,15.0,19.0,24,0.00,,---,0.00,594.00,VWS V14.01,2013-08-29 21:36:00,
2013-08-29 16:41:00,100.9,57.5,29.88,SSE,163,8.0,19.0,24,0.00,,---,0.00,680.00,VWS V14.01,2013-08-29 21:41:00,
2013-08-29 16:46:00,100.5,57.2,29.88,South,183,6.0,19.0,24,0.00,,---,0.00,457.00,VWS V14.01,2013-08-29 21:46:00,
2013-08-29 16:51:00,100.3,57.0,29.88,SSW,196,9.0,19.0,24,0.00,,---,0.00,512.00,VWS V14.01,2013-08-29 21:51:00,
2013-08-29 16:56:00,100.4,58.2,29.87,SE,144,5.0,19.0,25,0.00,,---,0.00,538.00,VWS V14.01,2013-08-29 21:56:00,
2013-08-29 17:01:00,100.3,58.2,29.87,SSE,161,7.0,19.0,25,0.00,,---,0.00,482.00,VWS V14.01,2013-08-29 22:01:00,
2013-08-29 17:06:00,100.1,58.0,29.87,SW,223,5.0,11.0,25,0.00,,---,0.00,431.00,VWS V14.01,2013-08-29 22:06:00,
2013-08-29 17:11:00,100.0,57.9,29.87,SSW,206,7.0,16.0,25,0.00,,---,0.00,369.00,VWS V14.01,2013-08-29 22:11:00,
2013-08-29 17:16:00,99.7,57.7,29.87,SSE,167,5.0,16.0,25,0.00,,---,0.00,248.00,VWS V14.01,2013-08-29 22:16:00,
2013-08-29 17:21:00,99.3,58.4,29.87,SSE,167,6.0,16.0,26,0.00,,---,0.00,257.00,VWS V14.01,2013-08-29 22:21:00,
2013-08-29 17:26:00,99.0,58.2,29.87,East,84,2.0,16.0,26,0.00,,---,0.00,352.00,VWS V14.01,2013-08-29 22:26:00,
2013-08-29 17:31:00,99.1,57.1,29.87,SW,217,5.0,16.0,25,0.00,,---,0.00,318.00,VWS V14.01,2013-08-29 22:31:00,
2013-08-29 17:36:00,99.2,57.2,29.87,SW,233,5.0,12.0,25,0.00,,---,0.00,292.00,VWS V14.01,2013-08-29 22:36:00,
2013-08-29 17:41:00,99.2,57.2,29.87,South,188,8.0,12.0,25,0.00,,---,0.00,323.00,VWS V14.01,2013-08-29 22:41:00,
2013-08-29 17:46:00,99.2,58.3,29.86,South,169,3.0,12.0,26,0.00,,---,0.00,234.00,VWS V14.01,2013-08-29 22:46:00,
2013-08-29 17:51:00,99.1,58.2,29.86,SSE,165,4.0,12.0,26,0.00,,---,0.00,220.00,VWS V14.01,2013-08-29 22:51:00,
2013-08-29 17:56:00,98.9,58.1,29.86,SSE,163,6.0,12.0,26,0.00,,---,0.00,179.00,VWS V14.01,2013-08-29 22:56:00,
2013-08-29 18:01:00,98.5,57.7,29.86,South,184,5.0,14.0,26,0.00,,---,0.00,139.00,VWS V14.01,2013-08-29 23:01:00,
2013-08-29 18:06:00,98.1,58.4,29.86,South,173,4.0,10.0,27,0.00,,---,0.00,128.00,VWS V14.01,2013-08-29 23:06:00,
2013-08-29 18:11:00,97.9,58.3,29.86,SSE,153,6.0,10.0,27,0.00,,---,0.00,111.00,VWS V14.01,2013-08-29 23:11:00,
2013-08-29 18:16:00,97.7,58.1,29.86,South,182,6.0,10.0,27,0.00,,---,0.00,104.00,VWS V14.01,2013-08-29 23:16:00,
2013-08-29 18:21:00,97.5,57.9,29.86,SSW,193,7.0,10.0,27,0.00,,---,0.00,113.00,VWS V14.01,2013-08-29 23:21:00,
2013-08-29 18:26:00,97.4,57.8,29.86,SSE,161,6.0,10.0,27,0.00,,---,0.00,146.00,VWS V14.01,2013-08-29 23:26:00,
2013-08-29 18:31:00,97.4,57.8,29.86,SSE,162,8.0,10.0,27,0.00,,---,0.00,195.00,VWS V14.01,2013-08-29 23:31:00,
2013-08-29 18:36:00,97.4,58.9,29.86,SSE,155,3.0,11.0,28,0.00,,---,0.00,160.00,VWS V14.01,2013-08-29 23:36:00,
2013-08-29 18:41:00,97.5,59.0,29.86,SSE,166,4.0,11.0,28,0.00,,---,0.00,202.00,VWS V14.01,2013-08-29 23:41:00,
2013-08-29 18:46:00,97.7,59.1,29.86,SE,144,5.0,11.0,28,0.00,,---,0.00,246.00,VWS V14.01,2013-08-29 23:46:00,
2013-08-29 18:51:00,97.8,59.2,29.86,SSE,167,5.0,11.0,28,0.00,,---,0.00,123.00,VWS V14.01,2013-08-29 23:51:00,
2013-08-29 18:56:00,97.6,59.0,29.86,SE,146,4.0,11.0,28,0.00,,---,0.00,116.00,VWS V14.01,2013-08-29 23:56:00,
2013-08-29 19:01:00,97.4,58.9,29.86,SSE,166,5.0,11.0,28,0.00,,---,0.00,107.00,VWS V14.01,2013-08-30 00:01:00,
2013-08-29 19:06:00,97.2,58.7,29.86,SSE,159,5.0,12.0,28,0.00,,---,0.00,116.00,VWS V14.01,2013-08-30 00:06:00,
2013-08-29 19:11:00,97.2,58.7,29.86,SSE,163,6.0,12.0,28,0.00,,---,0.00,135.00,VWS V14.01,2013-08-30 00:11:00,
2013-08-29 19:16:00,97.3,58.8,29.86,SSE,155,9.0,12.0,28,0.00,,---,0.00,79.00,VWS V14.01,2013-08-30 00:16:00,
2013-08-29 19:20:00,97.2,58.7,29.86,SSE,162,7.0,12.0,28,0.00,,---,0.00,72.00,VWS V14.01,2013-08-30 00:20:00,
2013-08-29 19:25:00,96.9,58.4,29.86,South,187,5.0,12.0,28,0.00,,---,0.00,97.00,VWS V14.01,2013-08-30 00:25:00,
2013-08-29 19:30:00,96.8,58.3,29.86,South,177,6.0,12.0,28,0.00,,---,0.00,79.00,VWS V14.01,2013-08-30 00:30:00,
2013-08-29 19:35:00,96.7,58.3,29.86,South,174,4.0,10.0,28,0.00,,---,0.00,53.00,VWS V14.01,2013-08-30 00:35:00,
2013-08-29 19:40:00,96.5,58.1,29.86,South,170,7.0,11.0,28,0.00,,---,0.00,32.00,VWS V14.01,2013-08-30 00:40:00,
2013-08-29 19:45:00,96.3,57.9,29.86,SSE,157,5.0,11.0,28,0.00,,---,0.00,23.00,VWS V14.01,2013-08-30 00:45:00,
2013-08-29 19:50:00,96.1,57.8,29.86,SSE,160,5.0,11.0,28,0.00,,---,0.00,16.00,VWS V14.01,2013-08-30 00:50:00,
2013-08-29 19:55:00,95.8,58.5,29.86,SSE,161,3.0,11.0,29,0.00,,---,0.00,11.00,VWS V14.01,2013-08-30 00:55:00,
2013-08-29 20:00:00,95.4,58.1,29.86,SSE,161,4.0,11.0,29,0.00,,---,0.00,7.00,VWS V14.01,2013-08-30 01:00:00,
2013-08-29 20:05:00,94.9,58.7,29.86,SSE,163,3.0,5.0,30,0.00,,---,0.00,0.00,VWS V14.01,2013-08-30 01:05:00,
2013-08-29 20:10:00,94.5,58.3,29.87,SSE,163,3.0,5.0,30,0.00,,---,0.00,0.00,VWS V14.01,2013-08-30 01:10:00,
2013-08-29 20:15:00,94.0,58.8,29.86,SSE,160,3.0,5.0,31,0.00,,---,0.00,0.00,VWS V14.01,2013-08-30 01:15:00,
2013-08-29 20:20:00,93.3,59.1,29.87,SSE,159,2.0,5.0,32,0.00,,---,0.00,0.00,VWS V14.01,2013-08-30 01:20:00,
2013-08-29 20:25:00,92.7,58.5,29.87,South,169,2.0,5.0,32,0.00,,---,0.00,0.00,VWS V14.01,2013-08-30 01:25:00,
2013-08-29 20:30:00,92.1,58.9,29.87,SE,144,2.0,5.0,33,0.00,,---,0.00,0.00,VWS V14.01,2013-08-30 01:30:00,
2013-08-29 20:35:00,91.6,58.5,29.87,SSE,165,2.0,3.0,33,0.00,,---,0.00,0.00,VWS V14.01,2013-08-30 01:35:00,
2013-08-29 20:40:00,91.1,58.8,29.87,SSE,153,1.0,3.0,34,0.00,,---,0.00,0.00,VWS V14.01,2013-08-30 01:40:00,
2013-08-29 20:45:00,90.6,59.2,29.87,SE,140,2.0,3.0,35,0.00,,---,0.00,0.00,VWS V14.01,2013-08-30 01:45:00,
2013-08-29 20:50:00,90.1,58.8,29.87,SSE,166,1.0,4.0,35,0.00,,---,0.00,0.00,VWS V14.01,2013-08-30 01:50:00,
2013-08-29 20:55:00,89.8,58.5,29.87,SE,138,1.0,4.0,35,0.00,,---,0.00,0.00,VWS V14.01,2013-08-30 01:55:00,
2013-08-29 21:00:00,89.6,59.1,29.87,SE,141,2.0,4.0,36,0.00,,---,0.00,0.00,VWS V14.01,2013-08-30 02:00:00,
2013-08-29 21:05:00,89.3,58.9,29.88,South,171,4.0,4.0,36,0.00,,---,0.00,0.00,VWS V14.01,2013-08-30 02:05:00,
2013-08-29 21:10:00,89.2,58.8,29.88,SSE,155,2.0,4.0,36,0.00,,---,0.00,0.00,VWS V14.01,2013-08-30 02:10:00,
2013-08-29 21:15:00,89.2,58.8,29.88,South,175,2.0,6.0,36,0.00,,---,0.00,0.00,VWS V14.01,2013-08-30 02:15:00,
2013-08-29 21:20:00,89.2,58.8,29.88,SSE,166,3.0,6.0,36,0.00,,---,0.00,0.00,VWS V14.01,2013-08-30 02:20:00,
2013-08-29 21:25:00,89.1,58.7,29.88,SSE,163,3.0,6.0,36,0.00,,---,0.00,0.00,VWS V14.01,2013-08-30 02:25:00,
2013-08-29 21:30:00,89.1,58.7,29.88,SSE,159,4.0,6.0,36,0.00,,---,0.00,0.00,VWS V14.01,2013-08-30 02:30:00,
2013-08-29 21:35:00,89.0,58.6,29.88,South,178,4.0,5.0,36,0.00,,---,0.00,0.00,VWS V14.01,2013-08-30 02:35:00,
2013-08-29 21:40:00,89.0,58.6,29.89,SSE,161,4.0,7.0,36,0.00,,---,0.00,0.00,VWS V14.01,2013-08-30 02:40:00,
2013-08-29 21:45:00,88.8,59.2,29.89,SE,146,2.0,7.0,37,0.00,,---,0.00,0.00,VWS V14.01,2013-08-30 02:45:00,
2013-08-29 21:50:00,88.5,58.9,29.89,SSE,165,3.0,7.0,37,0.00,,---,0.00,0.00,VWS V14.01,2013-08-30 02:50:00,
2013-08-29 21:55:00,88.1,59.3,29.89,South,175,3.0,7.0,38,0.00,,---,0.00,0.00,VWS V14.01,2013-08-30 02:55:00,
2013-08-29 22:00:00,87.5,58.8,29.89,South,189,3.0,7.0,38,0.00,,---,0.00,0.00,VWS V14.01,2013-08-30 03:00:00,
2013-08-29 22:05:00,87.0,59.1,29.89,South,171,1.0,4.0,39,0.00,,---,0.00,0.00,VWS V14.01,2013-08-30 03:05:00,
2013-08-29 22:10:00,86.7,59.5,29.89,SSE,158,2.0,5.0,40,0.00,,---,0.00,0.00,VWS V14.01,2013-08-30 03:10:00,
2013-08-29 22:15:00,86.6,59.4,29.89,SSE,156,1.0,5.0,40,0.00,,---,0.00,0.00,VWS V14.01,2013-08-30 03:15:00,
2013-08-29 22:20:00,86.3,59.2,29.89,SSE,168,3.0,5.0,40,0.00,,---,0.00,0.00,VWS V14.01,2013-08-30 03:20:00,
2013-08-29 22:25:00,86.1,59.7,29.89,SE,140,2.0,5.0,41,0.00,,---,0.00,0.00,VWS V14.01,2013-08-30 03:25:00,
2013-08-29 22:30:00,85.9,59.5,29.89,SSE,161,2.0,5.0,41,0.00,,---,0.00,0.00,VWS V14.01,2013-08-30 03:30:00,
2013-08-29 22:35:00,85.9,60.2,29.89,South,171,4.0,7.0,42,0.00,,---,0.00,0.00,VWS V14.01,2013-08-30 03:35:00,
2013-08-29 22:40:00,86.0,60.3,29.89,SE,141,5.0,7.0,42,0.00,,---,0.00,0.00,VWS V14.01,2013-08-30 03:40:00,
2013-08-29 22:45:00,86.1,60.3,29.89,South,174,6.0,8.0,42,0.00,,---,0.00,0.00,VWS V14.01,2013-08-30 03:45:00,
2013-08-29 22:50:00,86.1,60.3,29.89,South,177,5.0,8.0,42,0.00,,---,0.00,0.00,VWS V14.01,2013-08-30 03:50:00,
2013-08-29 22:55:00,86.1,60.3,29.89,SSE,166,4.0,8.0,42,0.00,,---,0.00,0.00,VWS V14.01,2013-08-30 03:55:00,
2013-08-29 23:00:00,86.2,61.1,29.89,SSE,158,8.0,9.0,43,0.00,,---,0.00,0.00,VWS V14.01,2013-08-30 04:00:00,
2013-08-29 23:01:00,86.2,61.1,29.89,SSE,159,4.0,9.0,43,0.00,,---,0.00,0.00,VWS V14.01,2013-08-30 04:01:00,
2013-08-29 23:02:00,86.3,61.2,29.89,South,175,8.0,12.0,43,0.00,,---,0.00,0.00,VWS V14.01,2013-08-30 04:02:00,
2013-08-29 23:08:00,86.7,60.9,29.89,SE,142,4.0,12.0,42,0.00,,---,0.00,0.00,VWS V14.01,2013-08-30 04:08:00,
2013-08-29 23:13:00,86.9,61.1,29.89,SSE,148,5.0,12.0,42,0.00,,---,0.00,0.00,VWS V14.01,2013-08-30 04:13:00,
2013-08-29 23:18:00,86.9,61.1,29.89,SSE,165,6.0,12.0,42,0.00,,---,0.00,0.00,VWS V14.01,2013-08-30 04:18:00,
2013-08-29 23:23:00,86.9,61.1,29.89,South,180,6.0,12.0,42,0.00,,---,0.00,0.00,VWS V14.01,2013-08-30 04:23:00,
2013-08-29 23:28:00,86.9,61.7,29.89,SSE,160,4.0,12.0,43,0.00,,---,0.00,0.00,VWS V14.01,2013-08-30 04:28:00,
2013-08-29 23:33:00,86.8,61.6,29.89,South,170,3.0,6.0,43,0.00,,---,0.00,0.00,VWS V14.01,2013-08-30 04:33:00,
2013-08-29 23:38:00,86.7,61.5,29.89,SSE,156,4.0,8.0,43,0.00,,---,0.00,0.00,VWS V14.01,2013-08-30 04:38:00,
2013-08-29 23:43:00,86.6,61.5,29.89,SE,135,6.0,8.0,43,0.00,,---,0.00,0.00,VWS V14.01,2013-08-30 04:43:00,
2013-08-29 23:48:00,86.4,61.3,29.89,South,179,4.0,8.0,43,0.00,,---,0.00,0.00,VWS V14.01,2013-08-30 04:48:00,
2013-08-29 23:53:00,86.3,61.2,29.89,SSE,163,5.0,8.0,43,0.00,,---,0.00,0.00,VWS V14.01,2013-08-30 04:53:00,
2013-08-29 23:58:00,86.1,61.7,29.89,SSE,154,6.0,9.0,44,0.00,,---,0.00,0.00,VWS V14.01,2013-08-30 04:58:00,